#timestamp,LO_Frequency,Hit,StdDev 
1558612815.4,286047021.7,N
1558612835.2,286047022.6,N
1558612855.1,286047026.1,N
1558612856.0,286047026.1,N
1558612875.8,286047023.5,N
1558612895.6,286047024.8,N
1558612915.5,286047021.4,N
1558612935.3,286047021.6,N
1558612955.2,286047020.1,N
1558612975.9,286047014.2,N
1558612995.7,286047009.1,N
1558613015.6,286047007.2,N
1558613035.4,286047002.1,N
1558613055.3,286047003.5,N
1558613075.1,286047006.1,N
1558613076.0,286047006.1,N
1558613095.8,286047010.6,N
1558613115.7,286047011.9,N
1558613135.5,286047016.6,N
1558613155.4,286047014.1,N
1558613175.2,286047013.7,N
1558613195.0,286047008.8,N
1558613195.9,286047008.8,N
1558613215.8,286047000.2,N
1558613235.6,286046992.3,N
1558613255.4,286046983.2,N
1558613275.3,286046980.1,N
1558613295.1,286046979.6,N
1558613315.9,286046980.4,N
1558613335.7,286046981.5,N
1558613355.5,286046989.4,N
1558613375.4,286046995.1,N
1558613395.2,286047001.3,N
1558613415.1,286047006.4,N
1558613416.0,286047006.4,N
1558613435.8,286047009.9,N
1558613455.6,286047010.1,N
1558613475.5,286047010.2,N
1558613495.3,286047006.3,N
1558613515.2,286047007.2,N
1558613535.9,286047007.9,N
1558613555.7,286047009.4,N
1558613575.6,286047012.3,N
1558613595.4,286047010.3,N
1558613615.2,286047010.3,N
1558613635.1,286047010.7,N
1558613636.0,286047010.7,N
1558613655.8,286047009.0,N
1558613675.7,286047010.2,N
1558613695.5,286047008.3,N
1558613715.3,286047007.8,N
1558613735.2,286047003.8,N
1558613755.0,286047007.4,N
1558613755.9,286047007.4,N
1558613775.7,286047007.6,N
1558613795.6,286047003.3,N
1558613815.4,286047006.8,N
1558613835.3,286047006.1,N
1558613855.1,286047007.4,N
1558613875.8,286047007.6,N
1558613895.7,286047005.6,N
1558613915.5,286047003.1,N
1558613935.4,286047001.5,N
1558613955.2,286046999.7,N
1558613975.0,286047002.2,N
1558613975.9,286047002.2,N
1558613995.8,286047000.4,N
1558614015.6,286047002.2,N
1558614035.4,286047002.7,N
1558614055.3,286047002.7,N
1558614075.1,286047002.8,N
1558614095.9,286047002.0,N
1558614115.7,286046999.8,N
1558614135.5,286046998.1,N
1558614155.4,286046998.1,N
1558614175.2,286047001.0,N
1558614195.0,286046997.3,N
1558614196.0,286046997.3,N
1558614215.8,286046998.7,N
1558614235.6,286047000.6,N
1558614255.5,286046999.6,N
1558614275.3,286047000.0,N
1558614295.2,286047002.1,N
1558614315.9,286047004.3,N
1558614335.7,286047001.9,N
1558614355.6,286047002.1,N
1558614375.4,286047002.1,N
1558614395.2,286047001.4,N
1558614415.1,286047001.4,N
1558614416.0,286047001.4,N
1558614435.8,286047000.6,N
1558614455.7,286046998.0,N
1558614475.5,286046992.9,Y
1558614495.3,286046985.9,P
1558614515.2,286046983.8,N
1558614535.0,286046986.0,N
1558614535.9,286046986.0,N
1558614555.8,286046985.4,N
1558614575.6,286046986.4,N
1558614595.4,286046984.0,N
1558614615.3,286046984.6,N
1558614635.1,286046986.8,N
1558614655.9,286046986.0,N
1558614675.7,286046990.0,N
1558614695.5,286046985.3,Y
1558614715.4,286046993.8,P
1558614735.2,286046994.3,N
1558614755.1,286046987.8,P
1558614756.0,286046987.8,Y
1558614775.8,286046994.8,P
1558614795.6,286046987.0,P
1558614815.5,286046989.5,P
1558614835.3,286046994.3,N
1558614855.1,286046997.8,N
1558614875.9,286046998.7,N
1558614895.7,286047001.1,N
1558614915.6,286047002.4,N
1558614935.4,286047002.0,N
1558614955.2,286047004.8,N
1558614975.1,286047004.6,N
1558614976.0,286047004.6,N
1558614995.8,286047005.4,N
1558615015.7,286047006.2,N
1558615035.5,286047007.2,N
1558615055.3,286047005.0,N
1558615075.2,286047012.4,N
1558615095.0,286047009.6,N
1558615095.9,286047009.6,N
1558615115.7,286047010.2,N
1558615135.6,286047010.2,N
1558615155.4,286047007.7,N
1558615175.3,286047009.4,N
1558615195.1,286047013.4,N
1558615196.0,286047013.4,N
1558615215.8,286047013.6,N
1558615235.7,286047011.6,N
1558615255.5,286047011.0,N
1558615275.3,286047013.2,N
1558615295.2,286047011.9,N
1558615315.0,286047011.8,N
1558615315.9,286047011.8,N
1558615335.8,286047012.3,N
1558615355.6,286047010.9,N
1558615375.4,286047013.5,Y
1558615395.3,286047003.0,P
1558615415.1,286047003.6,N
1558615435.9,286046996.6,N
1558615455.7,286046997.0,N
1558615475.5,286046999.0,N
1558615495.4,286046999.8,N
1558615515.2,286046999.1,N
1558615535.0,286046999.3,N
1558615535.9,286046999.3,N
1558615555.8,286046999.4,N
1558615575.6,286046994.9,N
1558615595.5,286046997.3,N
1558615615.3,286046996.0,N
1558615635.1,286046991.8,N
1558615655.9,286046987.5,Y
1558615675.7,286046991.1,P
1558615695.6,286046992.7,N
1558615715.4,286046991.9,N
1558615735.2,286046985.9,Y
1558615755.1,286046991.6,P
1558615756.0,286046991.6,P
1558615775.8,286046987.1,P
1558615795.6,286046992.7,Y
1558615815.5,286046998.3,P
1558615835.3,286046996.6,N
1558615855.2,286046990.6,P
1558615875.9,286046992.6,N
1558615895.7,286046987.4,Y
1558615915.6,286046997.2,P
1558615935.4,286046991.9,P
1558615955.3,286046996.2,N
1558615975.1,286046993.2,Y
1558615976.0,286046993.2,P
1558615995.8,286046991.4,P
1558616015.7,286046996.1,N
1558616035.5,286047001.0,N
1558616055.4,286047005.2,N
1558616075.2,286047008.2,N
1558616095.0,286047010.0,N
1558616095.9,286047010.0,N
1558616115.8,286047011.7,N
1558616135.6,286047009.9,N
1558616155.4,286047010.1,N
1558616175.3,286047011.2,N
1558616195.1,286047008.6,N
1558616215.9,286047010.6,N
1558616235.7,286047008.3,N
1558616255.6,286047008.5,N
1558616275.4,286047001.3,N
1558616295.2,286046997.4,N
1558616315.1,286046991.5,N
1558616316.0,286046991.5,N
1558616335.8,286046990.0,N
1558616355.7,286046991.4,N
1558616375.5,286046994.8,N
1558616395.3,286046995.1,N
